Theta_e
316 323 328 329 334 334 336 338 338 350 350 346 345 346 350 351 353 353 343 350 349 348 339 338 340 346 351 347 344 337 332 334 332 332 332 333 343 345 342 336 330 327 333 335 334 336 340 343 343
321 327 327 330 334 335 336 337 338 348 348 349 345 344 349 349 346 344 347 351 348 348 342 338 340 345 349 347 345 336 336 336 333 332 333 333 342 342 336 332 328 326 329 335 336 336 337 340 340
316 324 328 332 334 336 336 336 338 345 344 349 347 352 351 348 344 344 349 349 347 346 347 337 339 343 348 347 345 338 339 338 334 333 331 330 336 338 332 329 327 328 327 329 333 335 336 337 337
319 325 328 332 334 333 334 335 336 344 343 342 346 360 348 343 345 346 350 348 345 344 349 336 338 342 347 346 345 341 342 340 335 330 330 329 338 333 333 332 329 327 328 328 329 330 331 332 331
318 326 330 333 333 333 333 333 335 339 341 339 346 360 350 348 346 347 349 346 343 344 348 335 337 341 345 345 345 345 345 341 334 329 327 334 333 333 335 332 328 326 326 327 328 328 327 327 327
318 324 328 333 334 333 333 333 336 339 340 340 354 363 359 348 346 348 348 345 343 347 343 334 335 338 341 342 344 345 344 340 332 327 330 332 333 333 334 333 329 325 322 323 324 325 325 326 326
319 323 324 327 333 335 333 333 335 339 338 339 355 366 358 347 346 348 346 344 345 346 343 339 335 334 334 335 336 339 340 335 326 327 331 333 332 332 332 334 333 328 326 325 323 322 322 321 321
319 321 323 323 327 335 335 333 334 336 337 338 345 364 361 349 347 347 345 345 347 344 343 342 342 339 332 330 332 333 332 326 326 330 331 331 331 331 330 332 334 332 329 325 326 325 324 323 322
318 319 323 324 323 328 335 333 333 334 335 340 354 351 349 353 348 346 345 345 347 344 344 343 342 342 341 339 328 326 326 326 328 330 331 331 330 333 334 334 336 339 337 328 326 325 325 325 324
319 320 320 322 324 325 329 336 333 334 335 338 347 353 352 352 349 347 346 345 346 346 345 344 343 344 343 344 338 333 334 331 329 331 330 329 338 340 345 343 343 341 334 328 327 326 330 331 328
321 321 320 321 323 325 325 328 335 336 336 335 355 355 343 342 351 349 346 345 346 347 345 345 344 344 345 346 342 344 344 343 343 344 346 340 345 345 344 341 339 340 341 332 340 338 338 340 342
319 320 320 321 322 324 325 326 335 335 336 334 342 349 342 349 352 350 349 347 345 347 346 346 347 345 346 348 345 346 347 346 347 348 349 351 348 348 347 345 343 344 342 338 340 339 341 341 337
318 320 320 320 322 323 325 325 330 335 335 335 339 359 357 355 354 352 350 348 346 347 348 349 350 347 349 349 349 346 348 348 349 349 350 351 351 349 347 346 344 342 341 339 338 336 336 336 341
318 319 320 320 321 323 324 325 328 335 335 338 356 357 357 356 354 352 351 352 348 348 349 350 353 352 355 351 349 350 347 349 350 351 352 350 352 348 347 346 346 345 343 342 343 343 344 341 342
317 319 320 320 321 322 324 326 328 333 333 334 351 340 338 347 354 354 353 351 348 348 347 351 355 356 355 353 353 351 351 352 350 350 351 352 350 348 349 348 350 350 350 349 348 349 348 347 347
318 318 320 320 321 322 323 327 327 331 333 334 341 338 338 345 356 355 352 350 349 351 349 353 355 356 356 355 354 351 351 349 348 347 348 348 350 352 353 353 352 352 352 353 352 351 350 352 349
318 318 320 321 320 321 323 326 327 329 332 335 337 341 344 359 357 354 352 352 351 353 353 353 354 355 356 354 353 351 350 348 345 344 344 349 352 354 354 354 354 353 353 353 352 352 350 348 350
318 318 320 321 320 321 324 326 326 329 332 336 337 347 358 358 356 355 353 353 353 354 353 354 353 354 354 353 351 349 348 346 345 345 354 355 355 354 355 354 352 352 353 351 349 350 350 350 350
318 319 320 321 321 322 326 327 326 329 332 338 339 347 356 355 356 353 352 353 353 356 358 356 355 354 353 352 351 350 348 348 354 355 354 352 353 352 350 351 354 353 351 349 348 345 343 343 344
318 319 320 321 321 324 325 327 328 330 335 337 346 345 343 345 344 341 354 360 361 360 359 357 357 354 353 350 349 349 350 354 353 352 350 350 348 347 347 347 345 346 343 336 338 340 341 340 341
319 320 320 321 321 324 324 325 327 329 333 335 344 341 338 338 338 340 340 354 359 360 359 358 356 353 353 352 352 352 352 350 348 346 341 339 338 336 334 331 328 329 328 323 326 326 325 328 328
320 320 321 321 323 324 326 327 329 329 335 336 341 338 338 337 337 336 343 345 356 357 359 356 357 354 354 353 352 351 351 348 347 340 335 331 329 328 326 325 322 324 325 324 325 324 322 326 327
320 321 323 322 323 324 325 326 327 329 336 336 340 337 335 335 335 334 345 350 350 352 355 355 357 354 354 352 351 349 349 342 338 334 332 327 324 324 325 325 325 323 324 324 323 322 317 325 324
319 322 323 323 323 324 326 328 328 329 336 336 337 337 336 335 335 335 345 347 352 353 355 355 354 353 352 350 350 349 343 338 334 331 329 327 324 326 327 327 325 324 323 322 321 321 316 322 320
318 322 325 324 327 328 328 327 326 328 335 334 337 337 336 333 331 332 340 349 349 352 354 353 352 353 349 352 348 343 338 334 333 331 328 324 326 327 326 325 324 324 322 322 321 320 318 318 316
320 320 324 327 330 328 326 328 326 328 328 331 336 336 335 333 332 332 334 346 345 350 351 352 354 353 351 346 341 337 334 330 328 324 325 325 325 325 325 325 324 323 322 321 319 318 319 315 319
318 320 323 324 327 328 327 328 326 327 327 328 331 333 336 335 333 333 333 340 341 346 350 351 351 349 344 340 336 329 329 327 326 324 325 325 324 325 325 324 323 322 321 319 318 318 317 317 317
319 319 321 322 325 325 324 326 328 328 327 329 329 329 336 336 334 333 335 340 342 346 349 348 346 341 336 333 328 333 328 327 327 329 327 327 327 326 324 322 321 320 319 318 318 317 316 315 316
320 320 321 321 321 326 325 328 329 329 331 331 330 330 332 334 332 331 331 340 344 346 346 343 339 333 331 330 330 329 329 329 329 327 327 326 325 323 322 320 319 318 317 316 315 314 313 312 311
319 322 324 332 329 328 328 330 326 327 326 328 326 326 326 328 329 329 329 328 343 344 342 338 332 330 330 331 330 329 328 328 327 326 325 323 322 321 319 318 317 316 315 313 312 310 309 310 309
Wind_Speed
15 15 17 18 7 8 17 19 23 13 8 10 12 14 21 15 10 14 27 35 33 27 26 21 18 21 22 21 19 18 18 16 15 15 16 16 15 11 10 9 9 9 9 8 7 6 6 6 6
13 14 15 6 10 14 16 21 25 15 10 18 30 5 22 18 18 20 21 34 31 28 27 22 19 19 21 20 19 18 18 15 14 14 15 15 13 10 8 8 7 8 7 6 5 4 3 3 3
14 13 9 8 14 17 18 21 13 20 27 23 30 14 11 17 19 20 34 34 30 28 24 24 20 19 21 20 19 18 17 15 14 14 15 14 11 9 8 7 7 6 5 4 3 2 2 2 3
10 8 8 13 21 24 28 24 12 19 28 21 8 14 15 21 20 31 35 32 29 27 23 26 22 20 21 20 19 18 16 14 13 15 15 14 11 9 8 7 6 4 4 2 1 1 2 3 4
19 8 11 16 24 24 24 26 15 17 15 12 16 14 15 15 32 35 36 32 31 28 23 26 23 21 20 19 18 17 15 13 13 15 16 14 12 9 7 6 4 3 2 1 1 2 3 5 6
9 12 14 19 23 25 26 26 13 8 19 8 14 14 2 19 31 33 33 32 30 31 26 27 23 21 20 18 17 16 15 14 14 16 15 13 11 8 6 5 4 3 2 2 3 4 5 6 8
18 14 21 24 23 24 27 27 16 12 17 11 32 33 9 16 27 30 30 31 32 30 28 26 23 21 20 18 18 17 16 15 15 16 14 12 10 8 6 5 3 3 3 3 4 6 7 8 9
15 15 24 23 22 26 25 26 18 12 14 6 4 5 14 18 29 28 28 29 30 27 25 24 21 19 19 18 17 17 16 16 15 15 13 12 10 8 7 6 5 4 6 7 8 8 9 11 11
22 16 18 29 29 28 25 25 22 9 17 3 10 9 5 11 24 28 29 29 28 27 25 24 22 19 17 16 18 17 16 16 15 14 13 12 8 6 8 8 7 10 10 11 11 11 11 13 15
21 18 32 25 24 24 29 23 22 13 21 5 22 21 25 27 20 23 24 26 28 29 26 25 26 23 21 16 17 16 15 14 14 12 12 11 7 14 6 10 12 11 13 14 14 12 12 14 16
27 26 26 27 27 26 26 24 29 12 20 14 29 24 26 26 26 20 24 26 27 29 28 27 27 24 24 22 18 16 13 13 11 10 11 8 12 9 8 11 14 13 8 9 10 14 13 12 14
24 30 29 26 26 25 26 24 18 23 27 14 21 39 31 30 21 19 22 25 26 28 28 29 29 24 23 25 17 19 20 20 16 16 15 10 9 5 9 10 12 13 8 10 8 10 16 13 14
28 30 27 28 25 26 25 25 16 30 33 29 13 28 27 21 17 20 20 22 25 23 23 26 24 24 18 24 17 20 21 20 20 19 17 12 10 11 9 8 9 11 10 9 10 11 14 15 15
26 25 27 25 27 26 28 24 18 25 28 22 21 11 7 18 18 18 17 20 25 23 20 21 20 19 12 15 15 11 14 14 10 14 15 11 10 8 8 9 9 11 10 11 12 11 10 11 14
24 25 24 26 25 29 27 22 24 16 23 32 24 14 10 30 24 20 28 24 28 27 27 23 23 20 14 10 8 9 7 5 8 5 10 8 9 8 8 9 10 9 11 9 13 14 16 17 18
24 24 21 26 26 29 28 21 25 22 19 27 27 21 16 21 15 27 30 35 33 29 25 23 20 20 16 12 11 11 8 6 7 8 9 9 7 7 6 8 11 11 9 10 12 17 20 13 17
21 21 27 25 29 25 29 20 25 23 24 14 17 28 30 34 27 27 33 35 32 27 33 28 22 22 18 14 13 9 7 10 7 7 8 9 6 7 8 9 11 10 10 13 16 18 22 17 20
26 28 26 26 27 27 25 21 21 23 24 14 18 14 4 10 20 28 32 35 34 33 31 28 23 29 26 24 18 13 11 11 12 11 11 10 3 2 4 6 9 11 12 14 16 17 20 19 21
23 25 26 26 26 27 25 23 22 24 21 17 19 17 21 25 17 19 30 31 28 32 31 28 26 29 23 19 14 13 16 16 12 14 8 5 2 4 6 6 8 8 11 12 12 15 19 23 23
27 27 26 24 27 25 26 24 23 19 19 19 18 13 20 21 6 12 15 28 31 29 28 27 21 27 22 22 22 17 15 14 17 11 10 9 8 8 6 5 8 10 11 15 16 18 16 16 18
28 26 25 28 27 22 23 28 25 20 20 22 8 11 13 17 17 14 26 16 27 26 25 24 24 24 21 18 11 14 17 14 14 14 13 12 11 11 11 11 12 15 12 16 17 18 18 18 21
23 25 19 31 22 18 27 18 21 23 21 20 10 11 10 15 7 15 14 12 21 24 22 24 24 23 18 17 13 12 11 11 16 19 15 13 12 12 12 13 14 16 13 15 15 15 18 17 18
19 21 26 27 18 23 23 19 21 23 20 17 20 18 19 17 11 22 19 15 15 20 22 20 21 21 16 20 16 17 15 22 21 18 16 14 13 11 11 11 11 11 10 10 12 16 19 14 16
21 20 23 22 13 16 20 22 17 20 21 27 17 23 24 22 18 27 24 23 20 19 20 19 18 17 17 16 14 15 24 23 22 17 16 14 11 9 8 7 8 8 9 10 12 14 18 17 16
19 18 7 13 5 9 22 18 15 21 28 25 22 28 26 25 24 14 12 17 20 22 21 20 20 19 17 15 21 22 24 22 19 17 16 16 16 12 7 5 6 7 9 10 13 14 18 17 21
19 15 9 12 6 14 17 16 23 20 23 20 25 26 23 17 15 20 15 19 23 25 23 22 20 19 21 21 22 22 23 20 17 12 10 14 12 6 5 3 5 7 9 11 13 16 16 23 18
16 16 21 13 21 12 12 25 22 19 13 8 17 18 26 21 11 22 21 23 23 23 20 20 21 20 22 23 23 25 17 15 16 14 11 9 9 9 4 4 6 8 11 13 15 15 19 19 21
16 14 16 9 12 14 14 19 14 19 15 14 10 11 16 19 17 12 13 21 26 26 24 24 23 22 22 22 24 19 20 19 16 9 11 8 5 4 5 6 8 11 13 15 17 17 19 23 24
13 8 8 15 8 9 8 11 14 22 19 16 15 16 25 16 14 12 8 21 28 27 27 27 25 24 20 19 19 20 18 15 13 11 8 5 3 4 6 8 11 13 16 18 20 21 22 22 25
17 18 20 2 8 8 9 3 19 17 14 12 11 9 6 4 9 10 9 8 27 27 29 28 27 22 18 18 19 18 16 13 10 8 5 3 4 6 9 11 14 15 18 20 21 22 22 20 18
Wind_Direction
269 283 275 270 255 232 253 248 256 157 210 317 317 63 77 47 49 103 134 120 127 135 146 147 148 151 156 158 156 153 148 142 140 141 141 140 131 122 111 105 105 108 108 103 102 97 92 83 72
269 287 267 268 240 249 247 246 255 98 47 326 287 83 77 74 102 125 122 126 133 141 140 149 152 153 157 160 159 155 151 145 143 145 146 146 138 132 124 118 117 115 117 109 103 95 83 81 44
258 262 270 232 238 242 255 243 231 131 110 227 246 61 80 113 121 126 124 128 135 138 144 153 154 154 158 162 161 158 154 148 146 148 149 152 147 140 132 120 114 116 116 122 114 98 79 20 351
241 228 248 250 235 231 249 265 328 174 179 197 155 94 110 131 124 126 132 134 138 142 145 151 153 154 158 163 163 160 156 151 151 154 156 156 154 151 143 131 123 122 119 113 101 326 317 310 309
235 259 229 233 240 250 248 253 259 250 278 182 147 140 115 113 128 136 134 140 142 143 150 153 154 155 156 163 165 163 162 160 160 162 161 162 161 160 151 136 129 135 139 159 207 275 292 295 298
217 226 240 230 235 235 251 250 233 214 254 198 88 56 67 127 139 142 140 145 144 137 148 154 156 156 159 165 167 169 170 168 168 166 168 166 166 168 165 159 159 168 194 220 243 262 273 283 290
232 216 231 243 231 240 238 253 229 186 253 238 135 150 148 140 146 143 144 145 137 137 145 153 156 159 159 163 165 169 171 171 171 170 171 172 177 182 191 195 199 217 234 251 261 267 272 274 280
226 241 236 238 247 238 235 244 259 194 238 233 6 128 145 152 150 148 148 144 136 142 147 150 155 155 158 161 165 168 171 170 171 174 179 185 193 202 215 226 233 247 265 264 262 266 274 281 285
227 234 236 234 228 241 248 226 247 207 243 248 74 95 57 327 153 156 152 148 144 148 151 153 153 155 156 163 164 165 169 172 176 184 190 198 206 225 238 245 243 261 269 267 267 274 283 289 288
222 224 230 231 242 238 250 259 226 212 231 184 100 100 114 276 184 170 158 156 152 151 159 159 158 160 163 161 173 162 170 176 181 190 203 197 193 222 231 241 252 268 274 268 271 274 280 279 280
224 232 228 237 242 254 252 256 275 303 263 210 140 146 154 200 212 177 167 161 158 154 161 161 161 166 168 162 168 169 173 179 185 194 213 205 222 208 241 249 251 255 264 255 273 268 270 282 280
227 233 240 233 243 249 258 270 217 247 270 224 186 163 178 192 188 172 170 159 158 155 164 157 162 170 176 159 160 181 180 184 191 195 201 215 241 229 242 248 253 233 237 267 262 277 275 268 275
231 233 232 246 245 246 255 257 229 215 259 281 237 156 170 175 181 169 154 155 156 147 145 141 148 175 172 156 167 186 189 183 193 184 194 204 218 240 228 251 274 271 286 290 260 265 268 271 278
229 236 240 229 245 251 247 246 251 196 236 261 106 114 173 177 180 145 144 134 131 143 136 144 160 179 188 158 171 183 186 179 174 177 196 192 217 254 238 260 262 268 275 281 287 290 301 284 283
244 239 232 241 226 243 251 240 244 231 220 270 125 119 101 296 173 166 159 130 145 163 155 166 167 171 183 172 147 155 183 133 191 208 162 180 219 246 247 261 286 275 280 279 283 288 285 278 276
237 240 233 223 236 229 247 228 236 237 216 235 130 126 123 252 195 164 156 157 168 161 151 158 165 167 166 174 160 163 181 196 189 205 201 202 218 239 255 264 268 274 284 288 285 276 270 285 295
225 224 224 221 222 228 232 222 230 234 239 227 249 159 177 204 185 165 164 157 152 152 155 165 174 162 166 166 167 178 175 184 209 206 210 188 202 234 249 268 281 296 305 294 299 319 327 305 303
209 216 215 221 204 224 222 218 226 232 226 224 241 216 129 114 156 187 148 152 149 148 160 165 173 173 164 170 169 171 188 199 212 193 114 138 158 245 252 281 298 295 302 306 309 320 320 332 327
224 212 218 210 209 214 222 211 216 232 218 206 245 221 153 158 218 186 152 143 151 149 158 168 164 160 156 171 166 189 194 203 140 126 113 84 18 300 320 323 345 360 9 355 357 356 346 332 333
233 220 213 217 210 208 214 228 222 233 204 216 218 47 45 20 302 342 171 138 134 142 155 161 159 160 166 160 159 195 202 145 111 104 83 76 53 53 51 52 47 40 48 37 26 18 360 344 339
226 226 211 228 203 221 205 226 223 218 218 231 116 57 69 50 352 33 325 154 140 141 150 150 153 166 170 171 157 119 112 110 102 102 91 86 91 90 80 66 70 58 38 36 24 9 2 339 337
219 232 251 210 214 217 210 208 222 221 187 237 137 113 106 80 319 276 189 300 142 148 154 160 161 169 174 167 155 152 144 143 129 116 113 103 95 84 75 66 59 60 35 24 23 359 352 345 335
222 213 224 246 225 220 212 230 191 218 182 257 130 130 128 132 239 273 164 168 148 153 157 163 160 162 174 164 165 170 123 118 116 118 127 119 101 84 67 58 43 42 43 15 12 353 347 339 334
210 221 207 248 200 262 183 244 197 208 181 202 166 151 156 163 192 241 153 157 142 143 145 149 146 153 164 176 163 171 136 127 127 142 146 136 121 113 92 65 64 28 22 9 358 349 347 332 340
199 212 185 217 215 198 243 221 224 209 187 190 179 167 174 171 192 195 155 135 147 150 148 154 166 160 163 171 135 134 136 136 148 165 156 150 141 116 91 65 39 20 3 352 344 339 340 334 330
181 194 180 197 183 210 225 235 225 189 218 195 187 182 183 180 186 197 178 149 154 146 149 170 155 150 149 131 128 132 135 137 151 130 123 101 119 113 109 50 15 356 346 340 337 330 323 326 321
206 218 189 202 178 214 177 237 224 205 202 283 201 186 180 181 165 203 168 166 152 145 154 145 152 146 136 134 138 137 137 148 133 118 101 100 103 123 74 18 350 337 331 328 326 320 317 321 318
225 222 208 247 200 218 182 191 217 159 192 219 249 317 170 161 176 197 152 152 149 147 147 144 141 138 137 137 138 125 120 122 122 113 108 98 86 46 26 354 335 327 324 322 320 319 317 312 310
228 274 264 222 232 257 207 200 210 154 162 171 165 191 246 179 187 184 156 148 142 141 137 135 137 134 141 145 131 117 118 119 123 116 106 95 63 18 358 340 333 328 324 323 324 322 319 319 321
202 200 249 126 281 298 230 6 312 158 137 138 172 220 236 176 173 171 172 197 145 147 139 141 137 139 146 131 125 123 124 118 110 106 91 55 17 2 351 340 333 329 326 327 325 324 321 321 343